This is the latest recevied weather packets stored in our database for station/object N8VDS-10. If no packets are shown the sender has not sent any weather packets the latest 10 day(s).
| Time | Temp. | Humidity | Pressure | Rain* | Wind** | Luminosity | Snow |
|---|---|---|---|---|---|---|---|
| 1777489393 | 11.11° C | 67% | 1014.5 hPa | 0 mm | - | 79 W/m² | - |
| 1777489090 | 11.11° C | 66% | 1014.7 hPa | 0 mm | - | 97 W/m² | - |
| 1777488787 | 11.11° C | 67% | 1014.5 hPa | 0 mm | - | 112 W/m² | - |
| 1777488485 | 11.67° C | 67% | 1014.7 hPa | 0 mm | - | 182 W/m² | - |
| 1777488183 | 11.11° C | 67% | 1014.7 hPa | 0 mm | - | 234 W/m² | - |
| 1777487880 | 11.11° C | 67% | 1014.6 hPa | 0 mm | - | 219 W/m² | - |
| 1777487578 | 11.11° C | 68% | 1014.7 hPa | 0 mm | - | 208 W/m² | - |
| 1777487275 | 11.67° C | 67% | 1014.6 hPa | 0 mm | - | 210 W/m² | - |
| 1777486972 | 11.67° C | 70% | 1014.7 hPa | 0 mm | - | 199 W/m² | - |
| 1777486668 | 11.11° C | 70% | 1014.6 hPa | 0 mm | - | 192 W/m² | - |
| 1777486366 | 10.56° C | 70% | 1014.6 hPa | 0 mm | - | 182 W/m² | - |
| 1777486063 | 11.67° C | 68% | 1014.7 hPa | 0 mm | - | 180 W/m² | - |
| 1777485759 | 11.11° C | 69% | 1014.8 hPa | 0 mm | - | 304 W/m² | - |
| 1777485455 | 11.11° C | 70% | 1014.8 hPa | 0 mm | - | 319 W/m² | - |
| 1777485151 | 11.67° C | 69% | 1014.5 hPa | 0 mm | - | 462 W/m² | - |
| 1777484848 | 11.67° C | 69% | 1014.9 hPa | 0 mm | - | 344 W/m² | - |
| 1777484545 | 11.11° C | 69% | 1014.7 hPa | 0 mm | - | 228 W/m² | - |
| 1777484242 | 11.11° C | 70% | 1014.9 hPa | 0 mm | - | 231 W/m² | - |
| 1777483938 | 11.11° C | 70% | 1014.9 hPa | 0 mm | - | 895 W/m² | - |
| 1777483634 | 11.11° C | 71% | 1014.8 hPa | 0 mm | - | 502 W/m² | - |
| 1777483330 | 11.11° C | 71% | 1015.1 hPa | 0 mm | - | 639 W/m² | - |
| 1777483025 | 10.56° C | 72% | 1015.3 hPa | 0 mm | - | 832 W/m² | - |
| 1777482722 | 10.56° C | 72% | 1015.2 hPa | 0 mm | - | 434 W/m² | - |
| 1777482418 | 10.56° C | 73% | 1015.3 hPa | 0 mm | - | 536 W/m² | - |
| 1777482116 | 10.56° C | 74% | 1015.5 hPa | 0 mm | - | 728 W/m² | - |
* Rain latest hour (hover to see other rain measurements)
** Current wind speed in m/s (hover to see current wind gust speed)